Year,Month,Day,Hour,Minute,Value (Times are PST for temperature in C)
2021,07,30,00,00,20.40
2021,07,30,00,01,20.40
2021,07,30,00,02,20.40
2021,07,30,00,03,20.40
2021,07,30,00,04,20.40
2021,07,30,00,05,20.40
2021,07,30,00,06,20.40
2021,07,30,00,07,20.40
2021,07,30,00,08,20.40
2021,07,30,00,09,20.40
2021,07,30,00,10,20.40
2021,07,30,00,11,20.50
2021,07,30,00,12,20.50
2021,07,30,00,13,20.60
2021,07,30,00,14,20.60
2021,07,30,00,15,20.60
2021,07,30,00,16,20.60
2021,07,30,00,17,20.60
2021,07,30,00,18,20.60
2021,07,30,00,19,20.60
2021,07,30,00,20,20.60
2021,07,30,00,21,20.60
2021,07,30,00,22,20.60
2021,07,30,00,23,20.50
2021,07,30,00,24,20.50
2021,07,30,00,25,20.50
2021,07,30,00,26,20.40
2021,07,30,00,27,20.40
2021,07,30,00,28,20.40
2021,07,30,00,29,20.30
2021,07,30,00,30,20.30
2021,07,30,00,31,20.20
2021,07,30,00,32,20.20
2021,07,30,00,33,20.20
2021,07,30,00,34,20.10
2021,07,30,00,35,20.10
2021,07,30,00,36,20.10
2021,07,30,00,37,20.10
2021,07,30,00,38,20.00
2021,07,30,00,39,20.00
2021,07,30,00,40,20.00
2021,07,30,00,41,19.90
2021,07,30,00,42,19.90
2021,07,30,00,43,19.90
2021,07,30,00,44,19.80
2021,07,30,00,45,19.80
2021,07,30,00,46,19.80
2021,07,30,00,47,19.80
2021,07,30,00,48,19.80
2021,07,30,00,49,19.80
2021,07,30,00,50,19.70
2021,07,30,00,51,19.70
2021,07,30,00,52,19.70
2021,07,30,00,53,19.70
2021,07,30,00,54,19.60
2021,07,30,00,55,19.60
2021,07,30,00,56,19.60
2021,07,30,00,57,19.60
2021,07,30,00,58,19.60
2021,07,30,00,59,19.60
2021,07,30,01,00,19.60
2021,07,30,01,01,19.60
2021,07,30,01,02,19.50
2021,07,30,01,03,19.50
2021,07,30,01,04,19.50
2021,07,30,01,05,19.50
2021,07,30,01,06,19.50
2021,07,30,01,07,19.40
2021,07,30,01,08,19.50
2021,07,30,01,09,19.40
2021,07,30,01,10,19.40
2021,07,30,01,11,19.40
2021,07,30,01,12,19.40
2021,07,30,01,13,19.40
2021,07,30,01,14,19.40
2021,07,30,01,15,19.40
2021,07,30,01,16,19.40
2021,07,30,01,17,19.40
2021,07,30,01,18,19.40
2021,07,30,01,19,19.30
2021,07,30,01,20,19.30
2021,07,30,01,21,19.30
2021,07,30,01,22,19.30
2021,07,30,01,23,19.30
2021,07,30,01,24,19.30
2021,07,30,01,25,19.30
2021,07,30,01,26,19.30
2021,07,30,01,27,19.30
2021,07,30,01,28,19.30
2021,07,30,01,29,19.30
2021,07,30,01,30,19.30
2021,07,30,01,31,19.20
2021,07,30,01,32,19.20
2021,07,30,01,33,19.20
2021,07,30,01,34,19.20
2021,07,30,01,35,19.20
2021,07,30,01,36,19.20
2021,07,30,01,37,19.20
2021,07,30,01,38,19.20
2021,07,30,01,39,19.20
2021,07,30,01,40,19.20
2021,07,30,01,41,19.20
2021,07,30,01,42,19.20
2021,07,30,01,43,19.20
2021,07,30,01,44,19.20
2021,07,30,01,45,19.20
2021,07,30,01,46,19.20
2021,07,30,01,47,19.20
2021,07,30,01,48,19.20
2021,07,30,01,49,19.20
2021,07,30,01,50,19.20
2021,07,30,01,51,19.20
2021,07,30,01,52,19.20
2021,07,30,01,53,19.20
2021,07,30,01,54,19.20
2021,07,30,01,55,19.20
2021,07,30,01,56,19.20
2021,07,30,01,57,19.30
2021,07,30,01,58,19.30
2021,07,30,01,59,19.30
2021,07,30,02,00,19.30
2021,07,30,02,01,19.30
2021,07,30,02,02,19.30
2021,07,30,02,03,19.30
2021,07,30,02,04,19.30
2021,07,30,02,05,19.30
2021,07,30,02,06,19.30
2021,07,30,02,07,19.20
2021,07,30,02,08,19.20
2021,07,30,02,09,19.20
2021,07,30,02,10,19.20
2021,07,30,02,11,19.20
2021,07,30,02,12,19.20
2021,07,30,02,13,19.20
2021,07,30,02,14,19.20
2021,07,30,02,15,19.20
2021,07,30,02,16,19.20
2021,07,30,02,17,19.10
2021,07,30,02,18,19.10
2021,07,30,02,19,19.10
2021,07,30,02,20,19.10
2021,07,30,02,21,19.10
2021,07,30,02,22,19.00
2021,07,30,02,23,19.00
2021,07,30,02,24,19.00
2021,07,30,02,25,18.90
2021,07,30,02,26,18.90
2021,07,30,02,27,18.90
2021,07,30,02,28,18.90
2021,07,30,02,29,18.80
2021,07,30,02,30,18.80
2021,07,30,02,31,18.80
2021,07,30,02,32,18.80
2021,07,30,02,33,18.70
2021,07,30,02,34,18.70
2021,07,30,02,35,18.70
2021,07,30,02,36,18.70
2021,07,30,02,37,18.70
2021,07,30,02,38,18.70
2021,07,30,02,39,18.60
2021,07,30,02,40,18.60
2021,07,30,02,41,18.60
2021,07,30,02,42,18.60
2021,07,30,02,43,18.60
2021,07,30,02,44,18.60
2021,07,30,02,45,18.60
2021,07,30,02,46,18.60
2021,07,30,02,47,18.60
2021,07,30,02,48,18.60
2021,07,30,02,49,18.50
2021,07,30,02,50,18.60
2021,07,30,02,51,18.50
2021,07,30,02,52,18.50
2021,07,30,02,53,18.50
2021,07,30,02,54,18.50
2021,07,30,02,55,18.50
2021,07,30,02,56,18.40
2021,07,30,02,57,18.40
2021,07,30,02,58,18.40
2021,07,30,02,59,18.40
2021,07,30,03,00,18.40
2021,07,30,03,01,18.30
2021,07,30,03,02,18.30
2021,07,30,03,03,18.30
2021,07,30,03,04,18.30
2021,07,30,03,05,18.30
2021,07,30,03,06,18.30
2021,07,30,03,07,18.30
2021,07,30,03,08,18.30
2021,07,30,03,09,18.30
2021,07,30,03,10,18.30
2021,07,30,03,11,18.30
2021,07,30,03,12,18.30
2021,07,30,03,13,18.30
2021,07,30,03,14,18.30
2021,07,30,03,15,18.30
2021,07,30,03,16,18.30
2021,07,30,03,17,18.40
2021,07,30,03,18,18.40
2021,07,30,03,19,18.40
2021,07,30,03,20,18.40
2021,07,30,03,21,18.40
2021,07,30,03,22,18.40
2021,07,30,03,23,18.40
2021,07,30,03,24,18.40
2021,07,30,03,25,18.40
2021,07,30,03,26,18.40
2021,07,30,03,27,18.40
2021,07,30,03,28,18.40
2021,07,30,03,29,18.40
2021,07,30,03,30,18.40
2021,07,30,03,31,18.30
2021,07,30,03,32,18.30
2021,07,30,03,33,18.30
2021,07,30,03,34,18.30
2021,07,30,03,35,18.30
2021,07,30,03,36,18.40
2021,07,30,03,37,18.30
2021,07,30,03,38,18.30
2021,07,30,03,39,18.40
2021,07,30,03,40,18.40
2021,07,30,03,41,18.40
2021,07,30,03,42,18.40
2021,07,30,03,43,18.40
2021,07,30,03,44,18.40
2021,07,30,03,45,18.40
2021,07,30,03,46,18.50
2021,07,30,03,47,18.50
2021,07,30,03,48,18.50
2021,07,30,03,49,18.50
2021,07,30,03,50,18.50
2021,07,30,03,51,18.60
2021,07,30,03,52,18.60
2021,07,30,03,53,18.60
2021,07,30,03,54,18.60
2021,07,30,03,55,18.70
2021,07,30,03,56,18.70
2021,07,30,03,57,18.80
2021,07,30,03,58,18.90
2021,07,30,03,59,18.90
2021,07,30,04,00,19.00
2021,07,30,04,01,19.00
2021,07,30,04,02,19.00
2021,07,30,04,03,19.00
2021,07,30,04,04,19.10
2021,07,30,04,05,19.10
2021,07,30,04,06,19.10
2021,07,30,04,07,19.10
2021,07,30,04,08,19.10
2021,07,30,04,09,19.10
2021,07,30,04,10,19.10
2021,07,30,04,11,19.10
2021,07,30,04,12,19.10
2021,07,30,04,13,19.10
2021,07,30,04,14,19.10
2021,07,30,04,15,19.10
2021,07,30,04,16,19.10
2021,07,30,04,17,19.10
2021,07,30,04,18,19.00
2021,07,30,04,19,19.00
2021,07,30,04,20,18.90
2021,07,30,04,21,18.80
2021,07,30,04,22,18.70
2021,07,30,04,23,18.60
2021,07,30,04,24,18.50
2021,07,30,04,25,18.50
2021,07,30,04,26,18.40
2021,07,30,04,27,18.40
2021,07,30,04,28,18.30
2021,07,30,04,29,18.30
2021,07,30,04,30,18.30
2021,07,30,04,31,18.20
2021,07,30,04,32,18.20
2021,07,30,04,33,18.20
2021,07,30,04,34,18.10
2021,07,30,04,35,18.10
2021,07,30,04,36,18.10
2021,07,30,04,37,18.10
2021,07,30,04,38,18.00
2021,07,30,04,39,17.90
2021,07,30,04,40,17.90
2021,07,30,04,41,17.80
2021,07,30,04,42,17.70
2021,07,30,04,43,17.70
2021,07,30,04,44,17.60
2021,07,30,04,45,17.60
2021,07,30,04,46,17.60
2021,07,30,04,47,17.60
2021,07,30,04,48,17.60
2021,07,30,04,49,17.60
2021,07,30,04,50,17.60
2021,07,30,04,51,17.60
2021,07,30,04,52,17.60
2021,07,30,04,53,17.60
2021,07,30,04,54,17.60
2021,07,30,04,55,17.60
2021,07,30,04,56,17.70
2021,07,30,04,57,17.60
2021,07,30,04,58,17.70
2021,07,30,04,59,17.70
2021,07,30,05,00,17.70
2021,07,30,05,01,17.70
2021,07,30,05,02,17.70
2021,07,30,05,03,17.70
2021,07,30,05,04,17.80
2021,07,30,05,05,17.80
2021,07,30,05,06,17.80
2021,07,30,05,07,17.80
2021,07,30,05,08,17.80
2021,07,30,05,09,17.80
2021,07,30,05,10,17.80
2021,07,30,05,11,17.90
2021,07,30,05,12,17.90
2021,07,30,05,13,18.00
2021,07,30,05,14,18.00
2021,07,30,05,15,18.10
2021,07,30,05,16,18.20
2021,07,30,05,17,18.20
2021,07,30,05,18,18.30
2021,07,30,05,19,18.30
2021,07,30,05,20,18.30
2021,07,30,05,21,18.30
2021,07,30,05,22,18.40
2021,07,30,05,23,18.30
2021,07,30,05,24,18.30
2021,07,30,05,25,18.20
2021,07,30,05,26,18.10
2021,07,30,05,27,18.00
2021,07,30,05,28,17.90
2021,07,30,05,29,17.90
2021,07,30,05,30,17.80
2021,07,30,05,31,17.80
2021,07,30,05,32,17.70
2021,07,30,05,33,17.70
2021,07,30,05,34,17.60
2021,07,30,05,35,17.60
2021,07,30,05,36,17.60
2021,07,30,05,37,17.60
2021,07,30,05,38,17.60
2021,07,30,05,39,17.60
2021,07,30,05,40,17.60
2021,07,30,05,41,17.60
2021,07,30,05,42,17.60
2021,07,30,05,43,17.60
2021,07,30,05,44,17.60
2021,07,30,05,45,17.60
2021,07,30,05,46,17.70
2021,07,30,05,47,17.70
2021,07,30,05,48,17.80
2021,07,30,05,49,17.80
2021,07,30,05,50,17.80
2021,07,30,05,51,17.80
2021,07,30,05,52,17.90
2021,07,30,05,53,17.90
2021,07,30,05,54,17.90
2021,07,30,05,55,17.90
2021,07,30,05,56,17.90
2021,07,30,05,57,18.00
2021,07,30,05,58,18.00
2021,07,30,05,59,18.00
2021,07,30,06,00,18.00
2021,07,30,06,01,18.00
2021,07,30,06,02,18.00
2021,07,30,06,03,18.10
2021,07,30,06,04,18.10
2021,07,30,06,05,18.00
2021,07,30,06,06,18.00
2021,07,30,06,07,18.00
2021,07,30,06,08,18.10
2021,07,30,06,09,18.00
2021,07,30,06,10,18.00
2021,07,30,06,11,18.00
2021,07,30,06,12,18.00
2021,07,30,06,13,18.00
2021,07,30,06,14,18.00
2021,07,30,06,15,18.00
2021,07,30,06,16,18.00
2021,07,30,06,17,18.00
2021,07,30,06,18,18.00
2021,07,30,06,19,18.00
2021,07,30,06,20,18.00
2021,07,30,06,21,18.00
2021,07,30,06,22,18.00
2021,07,30,06,23,18.00
2021,07,30,06,24,18.00
2021,07,30,06,25,18.00
2021,07,30,06,26,18.00
2021,07,30,06,27,18.10
2021,07,30,06,28,18.00
2021,07,30,06,29,18.10
2021,07,30,06,30,18.10
2021,07,30,06,31,18.10
2021,07,30,06,32,18.10
2021,07,30,06,33,18.10
2021,07,30,06,34,18.10
2021,07,30,06,35,18.10
2021,07,30,06,36,18.10
2021,07,30,06,37,18.10
2021,07,30,06,38,18.10
2021,07,30,06,39,18.10
2021,07,30,06,40,18.10
2021,07,30,06,41,18.10
2021,07,30,06,42,18.10
2021,07,30,06,43,18.20
2021,07,30,06,44,18.10
2021,07,30,06,45,18.20
2021,07,30,06,46,18.20
2021,07,30,06,47,18.20
2021,07,30,06,48,18.20
2021,07,30,06,49,18.20
2021,07,30,06,50,18.20
2021,07,30,06,51,18.20
2021,07,30,06,52,18.20
2021,07,30,06,53,18.20
2021,07,30,06,54,18.10
2021,07,30,06,55,18.20
2021,07,30,06,56,18.10
2021,07,30,06,57,18.10
2021,07,30,06,58,18.10
2021,07,30,06,59,18.10
2021,07,30,07,00,18.10
2021,07,30,07,01,18.10
2021,07,30,07,02,18.10
2021,07,30,07,03,18.10
2021,07,30,07,04,18.10
2021,07,30,07,05,18.10
2021,07,30,07,06,18.10
2021,07,30,07,07,18.10
2021,07,30,07,08,18.10
2021,07,30,07,09,18.10
2021,07,30,07,10,18.10
2021,07,30,07,11,18.10
2021,07,30,07,12,18.20
2021,07,30,07,13,18.20
2021,07,30,07,14,18.20
2021,07,30,07,15,18.20
2021,07,30,07,16,18.20
2021,07,30,07,17,18.20
2021,07,30,07,18,18.20
2021,07,30,07,19,18.30
2021,07,30,07,20,18.30
2021,07,30,07,21,18.30
2021,07,30,07,22,18.30
2021,07,30,07,23,18.30
2021,07,30,07,24,18.40
2021,07,30,07,25,18.40
2021,07,30,07,26,18.40
2021,07,30,07,27,18.40
2021,07,30,07,28,18.40
2021,07,30,07,29,18.50
2021,07,30,07,30,18.50
2021,07,30,07,31,18.50
2021,07,30,07,32,18.50
2021,07,30,07,33,18.50
2021,07,30,07,34,18.50
2021,07,30,07,35,18.50
2021,07,30,07,36,18.60
2021,07,30,07,37,18.60
2021,07,30,07,38,18.60
2021,07,30,07,39,18.60
2021,07,30,07,40,18.60
2021,07,30,07,41,18.60
2021,07,30,07,42,18.60
2021,07,30,07,43,18.70
2021,07,30,07,44,18.70
2021,07,30,07,45,18.70
2021,07,30,07,46,18.70
2021,07,30,07,47,18.70
2021,07,30,07,48,18.80
2021,07,30,07,49,18.80
2021,07,30,07,50,18.80
2021,07,30,07,51,18.80
2021,07,30,07,52,18.80
2021,07,30,07,53,18.80
2021,07,30,07,54,18.80
2021,07,30,07,55,18.80
2021,07,30,07,56,18.90
2021,07,30,07,57,18.90
2021,07,30,07,58,18.90
2021,07,30,07,59,18.90
2021,07,30,08,00,18.90
2021,07,30,08,01,19.00
2021,07,30,08,02,19.00
2021,07,30,08,03,19.00
2021,07,30,08,04,19.00
2021,07,30,08,05,19.00
2021,07,30,08,06,19.10
2021,07,30,08,07,19.10
2021,07,30,08,08,19.10
2021,07,30,08,09,19.10
2021,07,30,08,10,19.10
2021,07,30,08,11,19.10
2021,07,30,08,12,19.10
2021,07,30,08,13,19.20
2021,07,30,08,14,19.20
2021,07,30,08,15,19.20
2021,07,30,08,16,19.20
2021,07,30,08,17,19.20
2021,07,30,08,18,19.20
2021,07,30,08,19,19.20
2021,07,30,08,20,19.20
2021,07,30,08,21,19.20
2021,07,30,08,22,19.20
2021,07,30,08,23,19.20
2021,07,30,08,24,19.20
2021,07,30,08,25,19.20
2021,07,30,08,26,19.20
2021,07,30,08,27,19.20
2021,07,30,08,28,19.30
2021,07,30,08,29,19.30
2021,07,30,08,30,19.30
2021,07,30,08,31,19.30
2021,07,30,08,32,19.30
2021,07,30,08,33,19.30
2021,07,30,08,34,19.30
2021,07,30,08,35,19.30
2021,07,30,08,36,19.30
2021,07,30,08,37,19.30
2021,07,30,08,38,19.30
2021,07,30,08,39,19.40
2021,07,30,08,40,19.40
2021,07,30,08,41,19.40
2021,07,30,08,42,19.40
2021,07,30,08,43,19.40
2021,07,30,08,44,19.40
2021,07,30,08,45,19.50
2021,07,30,08,46,19.50
2021,07,30,08,47,19.50
2021,07,30,08,48,19.60
2021,07,30,08,49,19.60
2021,07,30,08,50,19.60
2021,07,30,08,51,19.70
2021,07,30,08,52,19.70
2021,07,30,08,53,19.70
2021,07,30,08,54,19.80
2021,07,30,08,55,19.80
2021,07,30,08,56,19.80
2021,07,30,08,57,19.80
2021,07,30,08,58,19.90
2021,07,30,08,59,19.90
2021,07,30,09,00,19.90
2021,07,30,09,01,20.00
2021,07,30,09,02,20.00
2021,07,30,09,03,20.00
2021,07,30,09,04,20.00
2021,07,30,09,05,20.00
2021,07,30,09,06,20.10
2021,07,30,09,07,20.10
2021,07,30,09,08,20.10
2021,07,30,09,09,20.10
2021,07,30,09,10,20.10
2021,07,30,09,11,20.10
2021,07,30,09,12,20.10
2021,07,30,09,13,20.20
2021,07,30,09,14,20.20
2021,07,30,09,15,20.20
2021,07,30,09,16,20.20
2021,07,30,09,17,20.20
2021,07,30,09,18,20.20
2021,07,30,09,19,20.20
2021,07,30,09,20,20.20
2021,07,30,09,21,20.20
2021,07,30,09,22,20.30
2021,07,30,09,23,20.30
2021,07,30,09,24,20.30
2021,07,30,09,25,20.30
2021,07,30,09,26,20.30
2021,07,30,09,27,20.30
2021,07,30,09,28,20.30
2021,07,30,09,29,20.30
2021,07,30,09,30,20.30
2021,07,30,09,31,20.30
2021,07,30,09,32,20.30
2021,07,30,09,33,20.40
2021,07,30,09,34,20.40
2021,07,30,09,35,20.40
2021,07,30,09,36,20.40
2021,07,30,09,37,20.40
2021,07,30,09,38,20.40
2021,07,30,09,39,20.40
2021,07,30,09,40,20.50
2021,07,30,09,41,20.50
2021,07,30,09,42,20.50
2021,07,30,09,43,20.60
2021,07,30,09,44,20.60
2021,07,30,09,45,20.60
2021,07,30,09,46,20.60
2021,07,30,09,47,20.60
2021,07,30,09,48,20.60
2021,07,30,09,49,20.60
2021,07,30,09,50,20.60
2021,07,30,09,51,20.70
2021,07,30,09,52,20.70
2021,07,30,09,53,20.70
2021,07,30,09,54,20.70
2021,07,30,09,55,20.70
2021,07,30,09,56,20.70
2021,07,30,09,57,20.70
2021,07,30,09,58,20.70
2021,07,30,09,59,20.70
2021,07,30,10,00,20.70
2021,07,30,10,01,20.70
2021,07,30,10,02,20.70
2021,07,30,10,03,20.70
2021,07,30,10,04,20.70
2021,07,30,10,05,20.70
2021,07,30,10,06,20.70
2021,07,30,10,07,20.70
2021,07,30,10,08,20.80
2021,07,30,10,09,20.70
2021,07,30,10,10,20.70
2021,07,30,10,11,20.80
2021,07,30,10,12,20.80
2021,07,30,10,13,20.70
2021,07,30,10,14,20.70
2021,07,30,10,15,20.70
2021,07,30,10,16,20.70
2021,07,30,10,17,20.70
2021,07,30,10,18,20.80
2021,07,30,10,19,20.80
2021,07,30,10,20,20.80
2021,07,30,10,21,20.80
2021,07,30,10,22,20.80
2021,07,30,10,23,20.80
2021,07,30,10,24,20.80
2021,07,30,10,25,20.90
2021,07,30,10,26,20.90
2021,07,30,10,27,20.90
2021,07,30,10,28,20.90
2021,07,30,10,29,20.90
2021,07,30,10,30,21.00
2021,07,30,10,31,21.00
2021,07,30,10,32,21.00
2021,07,30,10,33,21.00
2021,07,30,10,34,21.10
2021,07,30,10,35,21.10
2021,07,30,10,36,21.10
2021,07,30,10,37,21.10
2021,07,30,10,38,21.10
2021,07,30,10,39,21.10
2021,07,30,10,40,21.10
2021,07,30,10,41,21.10
2021,07,30,10,42,21.10
2021,07,30,10,43,21.10
2021,07,30,10,44,21.20
2021,07,30,10,45,21.20
2021,07,30,10,46,21.20
2021,07,30,10,47,21.20
2021,07,30,10,48,21.20
2021,07,30,10,49,21.20
2021,07,30,10,50,21.20
2021,07,30,10,51,21.20
2021,07,30,10,52,21.20
2021,07,30,10,53,21.30
2021,07,30,10,54,21.30
2021,07,30,10,55,21.30
2021,07,30,10,56,21.30
2021,07,30,10,57,21.40
2021,07,30,10,58,21.40
2021,07,30,10,59,21.40
2021,07,30,11,00,21.50
2021,07,30,11,01,21.50
2021,07,30,11,02,21.60
2021,07,30,11,03,21.60
2021,07,30,11,04,21.60
2021,07,30,11,05,21.60
2021,07,30,11,06,21.60
2021,07,30,11,07,21.60
2021,07,30,11,08,21.60
2021,07,30,11,09,21.60
2021,07,30,11,10,21.60
2021,07,30,11,11,21.70
2021,07,30,11,12,21.70
2021,07,30,11,13,21.70
2021,07,30,11,14,21.70
2021,07,30,11,15,21.70
2021,07,30,11,16,21.70
2021,07,30,11,17,21.80
2021,07,30,11,18,21.80
2021,07,30,11,19,21.80
2021,07,30,11,20,21.80
2021,07,30,11,21,21.80
2021,07,30,11,22,21.90
2021,07,30,11,23,21.90
2021,07,30,11,24,21.90
2021,07,30,11,25,21.90
2021,07,30,11,26,21.90
2021,07,30,11,27,21.90
2021,07,30,11,28,21.90
2021,07,30,11,29,21.90
2021,07,30,11,30,21.90
2021,07,30,11,31,21.90
2021,07,30,11,32,21.90
2021,07,30,11,33,22.00
2021,07,30,11,34,22.00
2021,07,30,11,35,22.10
2021,07,30,11,36,22.20
2021,07,30,11,37,22.20
2021,07,30,11,38,22.20
2021,07,30,11,39,22.20
2021,07,30,11,40,22.30
2021,07,30,11,41,22.30
2021,07,30,11,42,22.30
2021,07,30,11,43,22.30
2021,07,30,11,44,22.30
2021,07,30,11,45,22.30
2021,07,30,11,46,22.30
2021,07,30,11,47,22.30
2021,07,30,11,48,22.30
2021,07,30,11,49,22.20
2021,07,30,11,50,22.20
2021,07,30,11,51,22.10
2021,07,30,11,52,22.10
2021,07,30,11,53,22.10
2021,07,30,11,54,22.10
2021,07,30,11,55,22.20
2021,07,30,11,56,22.20
2021,07,30,11,57,22.20
2021,07,30,11,58,22.20
2021,07,30,11,59,22.20
2021,07,30,12,00,22.20
2021,07,30,12,01,22.20
2021,07,30,12,02,22.20
2021,07,30,12,03,22.20
2021,07,30,12,04,22.20
2021,07,30,12,05,22.20
2021,07,30,12,06,22.20
2021,07,30,12,07,22.20
2021,07,30,12,08,22.30
2021,07,30,12,09,22.30
2021,07,30,12,10,22.40
2021,07,30,12,11,22.40
2021,07,30,12,12,22.50
2021,07,30,12,13,22.60
2021,07,30,12,14,22.70
2021,07,30,12,15,22.90
2021,07,30,12,16,23.00
2021,07,30,12,17,23.20
2021,07,30,12,18,23.30
2021,07,30,12,19,23.40
2021,07,30,12,20,23.40
2021,07,30,12,21,23.40
2021,07,30,12,22,23.30
2021,07,30,12,23,23.30
2021,07,30,12,24,23.20
2021,07,30,12,25,23.20
2021,07,30,12,26,23.20
2021,07,30,12,27,23.20
2021,07,30,12,28,23.30
2021,07,30,12,29,23.30
2021,07,30,12,30,23.30
2021,07,30,12,31,23.30
2021,07,30,12,32,23.30
2021,07,30,12,33,23.40
2021,07,30,12,34,23.50
2021,07,30,12,35,23.60
2021,07,30,12,36,23.80
2021,07,30,12,37,24.00
2021,07,30,12,38,24.10
2021,07,30,12,39,24.20
2021,07,30,12,40,24.30
2021,07,30,12,41,24.30
2021,07,30,12,42,24.40
2021,07,30,12,43,24.40
2021,07,30,12,44,24.50
2021,07,30,12,45,24.60
2021,07,30,12,46,24.70
2021,07,30,12,47,24.70
2021,07,30,12,48,24.70
2021,07,30,12,49,24.70
2021,07,30,12,50,24.60
2021,07,30,12,51,24.60
2021,07,30,12,52,24.70
2021,07,30,12,53,24.70
2021,07,30,12,54,24.80
2021,07,30,12,55,24.80
2021,07,30,12,56,24.80
2021,07,30,12,57,24.80
2021,07,30,12,58,24.80
2021,07,30,12,59,24.80
2021,07,30,13,00,24.90
2021,07,30,13,01,24.90
2021,07,30,13,02,24.80
2021,07,30,13,03,24.80
2021,07,30,13,04,24.70
2021,07,30,13,05,24.70
2021,07,30,13,06,24.80
2021,07,30,13,07,24.70
2021,07,30,13,08,24.80
2021,07,30,13,09,24.80
2021,07,30,13,10,24.90
2021,07,30,13,11,24.90
2021,07,30,13,12,25.00
2021,07,30,13,13,25.10
2021,07,30,13,14,25.20
2021,07,30,13,15,25.20
2021,07,30,13,16,25.30
2021,07,30,13,17,25.40
2021,07,30,13,18,25.40
2021,07,30,13,19,25.40
2021,07,30,13,20,25.40
2021,07,30,13,21,25.40
2021,07,30,13,22,25.40
2021,07,30,13,23,25.30
2021,07,30,13,24,25.30
2021,07,30,13,25,25.40
2021,07,30,13,26,25.40
2021,07,30,13,27,25.40
2021,07,30,13,28,25.50
2021,07,30,13,29,25.50
2021,07,30,13,30,25.60
2021,07,30,13,31,25.80
2021,07,30,13,32,25.90
2021,07,30,13,33,26.00
2021,07,30,13,34,26.10
2021,07,30,13,35,26.10
2021,07,30,13,36,26.10
2021,07,30,13,37,26.10
2021,07,30,13,38,26.10
2021,07,30,13,39,26.00
2021,07,30,13,40,25.80
2021,07,30,13,41,25.60
2021,07,30,13,42,25.50
2021,07,30,13,43,25.40
2021,07,30,13,44,25.40
2021,07,30,13,45,25.30
2021,07,30,13,46,25.20
2021,07,30,13,47,25.10
2021,07,30,13,48,25.00
2021,07,30,13,49,24.90
2021,07,30,13,50,24.80
2021,07,30,13,51,24.80
2021,07,30,13,52,24.80
2021,07,30,13,53,24.80
2021,07,30,13,54,24.80
2021,07,30,13,55,24.90
2021,07,30,13,56,24.90
2021,07,30,13,57,25.00
2021,07,30,13,58,25.00
2021,07,30,13,59,25.10
2021,07,30,14,00,25.20
2021,07,30,14,01,25.20
2021,07,30,14,02,25.20
2021,07,30,14,03,25.30
2021,07,30,14,04,25.40
2021,07,30,14,05,25.50
2021,07,30,14,06,25.50
2021,07,30,14,07,25.50
2021,07,30,14,08,25.50
2021,07,30,14,09,25.30
2021,07,30,14,10,25.20
2021,07,30,14,11,25.10
2021,07,30,14,12,24.90
2021,07,30,14,13,24.70
2021,07,30,14,14,24.60
2021,07,30,14,15,24.60
2021,07,30,14,16,24.60
2021,07,30,14,17,24.60
2021,07,30,14,18,24.60
2021,07,30,14,19,24.70
2021,07,30,14,20,24.70
2021,07,30,14,21,24.80
2021,07,30,14,22,24.90
2021,07,30,14,23,25.10
2021,07,30,14,24,25.20
2021,07,30,14,25,25.40
2021,07,30,14,26,25.60
2021,07,30,14,27,25.80
2021,07,30,14,28,26.00
2021,07,30,14,29,26.10
2021,07,30,14,30,26.30
2021,07,30,14,31,26.40
2021,07,30,14,32,26.50
2021,07,30,14,33,26.60
2021,07,30,14,34,26.60
2021,07,30,14,35,26.70
2021,07,30,14,36,26.70
2021,07,30,14,37,26.80
2021,07,30,14,38,26.80
2021,07,30,14,39,26.80
2021,07,30,14,40,26.90
2021,07,30,14,41,26.90
2021,07,30,14,42,26.90
2021,07,30,14,43,26.90
2021,07,30,14,44,26.90
2021,07,30,14,45,26.80
2021,07,30,14,46,26.90
2021,07,30,14,47,26.90
2021,07,30,14,48,27.00
2021,07,30,14,49,27.00
2021,07,30,14,50,27.00
2021,07,30,14,51,27.10
2021,07,30,14,52,27.20
2021,07,30,14,53,27.20
2021,07,30,14,54,27.30
2021,07,30,14,55,27.30
2021,07,30,14,56,27.40
2021,07,30,14,57,27.40
2021,07,30,14,58,27.40
2021,07,30,14,59,27.40
2021,07,30,15,00,27.40
2021,07,30,15,01,27.50
2021,07,30,15,02,27.60
2021,07,30,15,03,27.60
2021,07,30,15,04,27.60
2021,07,30,15,05,27.70
2021,07,30,15,06,27.60
2021,07,30,15,07,27.60
2021,07,30,15,08,27.60
2021,07,30,15,09,27.60
2021,07,30,15,10,27.50
2021,07,30,15,11,27.40
2021,07,30,15,12,27.40
2021,07,30,15,13,27.40
2021,07,30,15,14,27.40
2021,07,30,15,15,27.40
2021,07,30,15,16,27.40
2021,07,30,15,17,27.40
2021,07,30,15,18,27.50
2021,07,30,15,19,27.60
2021,07,30,15,20,27.70
2021,07,30,15,21,27.80
2021,07,30,15,22,27.90
2021,07,30,15,23,27.90
2021,07,30,15,24,28.00
2021,07,30,15,25,28.00
2021,07,30,15,26,28.00
2021,07,30,15,27,27.90
2021,07,30,15,28,27.80
2021,07,30,15,29,27.80
2021,07,30,15,30,27.70
2021,07,30,15,31,27.70
2021,07,30,15,32,27.60
2021,07,30,15,33,27.50
2021,07,30,15,34,27.50
2021,07,30,15,35,27.50
2021,07,30,15,36,27.50
2021,07,30,15,37,27.60
2021,07,30,15,38,27.60
2021,07,30,15,39,27.60
2021,07,30,15,40,27.60
2021,07,30,15,41,27.70
2021,07,30,15,42,27.70
2021,07,30,15,43,27.60
2021,07,30,15,44,27.60
2021,07,30,15,45,27.70
2021,07,30,15,46,27.70
2021,07,30,15,47,27.70
2021,07,30,15,48,27.70
2021,07,30,15,49,27.70
2021,07,30,15,50,27.80
2021,07,30,15,51,27.70
2021,07,30,15,52,27.70
2021,07,30,15,53,27.70
2021,07,30,15,54,27.70
2021,07,30,15,55,27.70
2021,07,30,15,56,27.80
2021,07,30,15,57,27.80
2021,07,30,15,58,27.90
2021,07,30,15,59,27.90
2021,07,30,16,00,28.00
2021,07,30,16,01,28.00
2021,07,30,16,02,28.00
2021,07,30,16,03,28.00
2021,07,30,16,04,27.90
2021,07,30,16,05,27.90
2021,07,30,16,06,27.90
2021,07,30,16,07,27.90
2021,07,30,16,08,27.90
2021,07,30,16,09,27.90
2021,07,30,16,10,28.00
2021,07,30,16,11,28.00
2021,07,30,16,12,28.10
2021,07,30,16,13,28.10
2021,07,30,16,14,28.20
2021,07,30,16,15,28.20
2021,07,30,16,16,28.20
2021,07,30,16,17,28.20
2021,07,30,16,18,28.20
2021,07,30,16,19,28.20
2021,07,30,16,20,28.30
2021,07,30,16,21,28.30
2021,07,30,16,22,28.30
2021,07,30,16,23,28.40
2021,07,30,16,24,28.50
2021,07,30,16,25,28.50
2021,07,30,16,26,28.60
2021,07,30,16,27,28.70
2021,07,30,16,28,28.80
2021,07,30,16,29,28.80
2021,07,30,16,30,28.80
2021,07,30,16,31,28.80
2021,07,30,16,32,28.80
2021,07,30,16,33,28.80
2021,07,30,16,34,28.80
2021,07,30,16,35,28.70
2021,07,30,16,36,28.70
2021,07,30,16,37,28.70
2021,07,30,16,38,28.70
2021,07,30,16,39,28.70
2021,07,30,16,40,28.80
2021,07,30,16,41,28.80
2021,07,30,16,42,28.80
2021,07,30,16,43,28.90
2021,07,30,16,44,28.90
2021,07,30,16,45,29.00
2021,07,30,16,46,29.10
2021,07,30,16,47,29.20
2021,07,30,16,48,29.30
2021,07,30,16,49,29.40
2021,07,30,16,50,29.50
2021,07,30,16,51,29.60
2021,07,30,16,52,29.70
2021,07,30,16,53,29.80
2021,07,30,16,54,29.80
2021,07,30,16,55,29.90
2021,07,30,16,56,29.90
2021,07,30,16,57,30.00
2021,07,30,16,58,30.00
2021,07,30,16,59,30.10
2021,07,30,17,00,30.10
2021,07,30,17,01,30.00
2021,07,30,17,02,30.00
2021,07,30,17,03,29.90
2021,07,30,17,04,29.90
2021,07,30,17,05,29.90
2021,07,30,17,06,29.90
2021,07,30,17,07,29.90
2021,07,30,17,08,29.90
2021,07,30,17,09,29.90
2021,07,30,17,10,29.90
2021,07,30,17,11,29.90
2021,07,30,17,12,30.00
2021,07,30,17,13,30.00
2021,07,30,17,14,30.10
2021,07,30,17,15,30.10
2021,07,30,17,16,30.10
2021,07,30,17,17,30.20
2021,07,30,17,18,30.30
2021,07,30,17,19,30.30